{"data":{"norad_id":47870,"intl_designator":"2021-021L","name":"STARLINK-2326","alt_names":[],"object_type":"PAYLOAD","status":"ACTIVE","operator":null,"country":"US","launch_date":"2021-03-14","launch_site_code":"AFETR","launch_vehicle":null,"mission":null,"orbit_class":"UNKNOWN","rcs_meters":null,"size_class":null,"mass_kg":null,"dimensions":null,"purposes":["comms"],"wikipedia_slug":null,"has_3d_model":false,"image_url":null,"decayed_at":null,"tle_current":{"epoch":"2026-05-25T02:58:49.532160Z","epoch_age_seconds":61541,"freshness":"FRESH","line1":"1 47870U 21021L   26145.12418440  .00001765  00000+0  68604-4 0  9990","line2":"2 47870  53.1604 285.4830 0000884  69.1960 290.9136 15.31702890287674","mean_motion":15.3170289,"eccentricity":8.84e-5,"inclination_deg":53.1604,"raan_deg":285.483,"arg_perigee_deg":69.196,"mean_anomaly_deg":290.9136,"bstar":6.8604e-5,"rev_number":28767,"period_min":94.01301057805,"perigee_km":470.12594033476,"apogee_km":471.3368202644,"semimajor_km":6848.8683802996,"source":"CELESTRAK","updated_at":"2026-05-25T13:38:16.609821Z"}}}